Precipitable_Water
2.30 2.25 2.34 2.43 2.42 2.38 2.35 2.27 2.16 2.20 2.24 2.10 1.97 1.94 1.98 2.03 2.00 1.96 1.97 1.93 1.88 1.87 1.88 1.87 1.84 1.81 1.79 1.76 1.73 1.69 1.63 1.59 1.58 1.57 1.55 1.53 1.48 1.45 1.43 1.42 1.42 1.42 1.40 1.40 1.42 1.42 1.43 1.47 1.53 1.58 1.61 1.65 1.67 1.66 1.66 1.71 1.76 1.83 1.84 1.83 1.85 1.85 1.88 1.87 1.86 1.80 1.76 1.67 1.56 1.50 1.48 1.43 1.38 1.40 1.38 1.39 1.43 1.40 1.37 1.37 1.28 1.25 1.31 1.36 1.47
2.23 2.31 2.38 2.39 2.39 2.36 2.30 2.21 2.19 2.24 2.23 2.15 2.08 2.03 2.01 2.00 1.97 1.96 1.98 1.95 1.92 1.88 1.87 1.86 1.82 1.79 1.76 1.74 1.72 1.67 1.62 1.59 1.56 1.54 1.49 1.44 1.41 1.38 1.39 1.40 1.41 1.41 1.41 1.40 1.40 1.42 1.48 1.54 1.57 1.61 1.64 1.66 1.68 1.66 1.68 1.70 1.75 1.79 1.82 1.84 1.83 1.86 1.88 1.92 1.87 1.81 1.78 1.68 1.57 1.49 1.48 1.42 1.37 1.38 1.34 1.33 1.34 1.26 1.22 1.17 1.24 1.29 1.35 1.45 1.59
2.28 2.26 2.36 2.38 2.37 2.35 2.29 2.26 2.23 2.23 2.20 2.11 2.07 2.04 1.99 1.95 1.92 1.91 1.91 1.93 1.90 1.87 1.85 1.81 1.80 1.76 1.73 1.71 1.68 1.63 1.60 1.58 1.53 1.49 1.45 1.42 1.39 1.40 1.39 1.38 1.39 1.38 1.39 1.39 1.39 1.44 1.50 1.55 1.59 1.63 1.68 1.71 1.68 1.66 1.68 1.68 1.73 1.81 1.82 1.85 1.85 1.87 1.90 1.93 1.89 1.83 1.80 1.73 1.62 1.48 1.42 1.38 1.41 1.37 1.35 1.31 1.25 1.27 1.30 1.35 1.34 1.35 1.41 1.52 1.57
2.20 2.27 2.35 2.38 2.36 2.32 2.29 2.25 2.21 2.18 2.15 2.05 2.00 1.99 1.96 1.94 1.89 1.87 1.89 1.87 1.85 1.84 1.82 1.79 1.78 1.77 1.73 1.70 1.65 1.60 1.57 1.55 1.53 1.50 1.47 1.45 1.44 1.43 1.41 1.38 1.37 1.39 1.41 1.41 1.42 1.46 1.49 1.54 1.59 1.62 1.66 1.71 1.71 1.70 1.68 1.69 1.70 1.78 1.88 1.91 1.90 1.91 1.93 1.96 1.96 1.88 1.82 1.76 1.64 1.49 1.36 1.30 1.38 1.37 1.33 1.31 1.30 1.35 1.40 1.43 1.41 1.40 1.47 1.56 1.55
2.22 2.25 2.29 2.31 2.30 2.26 2.23 2.19 2.14 2.11 2.08 2.03 1.99 1.97 1.93 1.90 1.87 1.88 1.89 1.84 1.84 1.82 1.82 1.78 1.76 1.74 1.70 1.66 1.61 1.57 1.54 1.54 1.53 1.52 1.51 1.49 1.46 1.46 1.44 1.39 1.39 1.40 1.41 1.42 1.44 1.44 1.48 1.54 1.57 1.60 1.67 1.70 1.72 1.70 1.71 1.72 1.71 1.75 1.86 1.96 2.01 2.00 2.00 1.98 2.01 1.96 1.85 1.76 1.67 1.51 1.38 1.27 1.34 1.40 1.33 1.34 1.38 1.38 1.40 1.43 1.42 1.41 1.45 1.55 1.57
2.17 2.20 2.23 2.24 2.24 2.24 2.20 2.12 2.10 2.07 2.05 2.02 1.98 1.93 1.89 1.87 1.84 1.81 1.83 1.82 1.84 1.84 1.79 1.77 1.74 1.71 1.68 1.64 1.62 1.60 1.57 1.54 1.54 1.54 1.52 1.50 1.49 1.49 1.44 1.41 1.41 1.42 1.44 1.46 1.45 1.44 1.47 1.52 1.57 1.62 1.69 1.74 1.75 1.74 1.76 1.76 1.72 1.73 1.81 1.89 1.97 2.03 2.06 2.01 2.01 2.01 1.93 1.78 1.70 1.54 1.42 1.26 1.30 1.38 1.39 1.39 1.42 1.44 1.42 1.42 1.43 1.46 1.50 1.58 1.62
2.19 2.17 2.18 2.20 2.18 2.17 2.13 2.08 2.06 2.02 1.99 1.98 1.96 1.90 1.87 1.88 1.84 1.82 1.84 1.83 1.86 1.85 1.81 1.78 1.73 1.68 1.65 1.64 1.62 1.61 1.58 1.56 1.57 1.56 1.54 1.53 1.54 1.52 1.49 1.47 1.44 1.42 1.46 1.49 1.49 1.51 1.53 1.52 1.57 1.64 1.69 1.74 1.80 1.83 1.82 1.78 1.75 1.73 1.76 1.83 1.88 1.97 2.05 2.06 2.04 2.03 2.02 1.81 1.71 1.60 1.47 1.32 1.25 1.33 1.40 1.41 1.40 1.42 1.43 1.42 1.43 1.46 1.52 1.60 1.65
2.16 2.13 2.15 2.16 2.12 2.11 2.11 2.07 2.05 1.99 1.93 1.91 1.91 1.87 1.84 1.87 1.88 1.85 1.85 1.86 1.87 1.86 1.80 1.75 1.70 1.66 1.64 1.63 1.62 1.60 1.57 1.55 1.54 1.55 1.56 1.56 1.54 1.52 1.52 1.48 1.43 1.46 1.52 1.54 1.56 1.58 1.57 1.58 1.57 1.62 1.67 1.76 1.85 1.83 1.78 1.75 1.71 1.73 1.73 1.78 1.85 1.90 1.95 2.03 2.03 2.01 2.03 1.88 1.72 1.65 1.52 1.40 1.28 1.29 1.41 1.42 1.41 1.40 1.41 1.42 1.41 1.42 1.46 1.54 1.61
2.11 2.09 2.06 2.08 2.08 2.06 2.05 2.05 2.01 1.94 1.89 1.87 1.88 1.84 1.83 1.85 1.86 1.86 1.83 1.82 1.83 1.79 1.73 1.68 1.66 1.65 1.63 1.62 1.62 1.62 1.59 1.56 1.54 1.56 1.57 1.55 1.53 1.52 1.50 1.47 1.48 1.54 1.57 1.59 1.60 1.58 1.58 1.56 1.57 1.61 1.67 1.75 1.78 1.79 1.75 1.75 1.78 1.79 1.79 1.80 1.82 1.91 1.95 1.97 1.99 2.02 1.99 1.93 1.76 1.69 1.60 1.47 1.34 1.29 1.39 1.43 1.46 1.42 1.41 1.42 1.41 1.40 1.42 1.50 1.58
2.08 2.05 2.00 1.95 1.97 1.98 1.98 1.96 1.94 1.91 1.90 1.86 1.84 1.81 1.80 1.84 1.82 1.81 1.77 1.76 1.74 1.70 1.67 1.65 1.64 1.62 1.60 1.60 1.63 1.64 1.62 1.60 1.56 1.56 1.56 1.54 1.55 1.53 1.51 1.52 1.58 1.61 1.60 1.60 1.58 1.55 1.52 1.53 1.57 1.63 1.68 1.75 1.77 1.71 1.74 1.78 1.83 1.83 1.87 1.87 1.81 1.85 1.99 2.00 2.03 1.96 1.94 1.95 1.79 1.72 1.65 1.56 1.44 1.35 1.35 1.39 1.45 1.44 1.43 1.42 1.39 1.38 1.41 1.48 1.51
1.98 1.95 1.90 1.87 1.90 1.94 1.93 1.92 1.90 1.86 1.85 1.84 1.82 1.82 1.80 1.82 1.80 1.79 1.76 1.73 1.69 1.65 1.64 1.64 1.63 1.61 1.60 1.60 1.62 1.64 1.63 1.62 1.60 1.57 1.56 1.55 1.54 1.53 1.55 1.63 1.65 1.65 1.65 1.63 1.57 1.51 1.53 1.54 1.57 1.64 1.69 1.72 1.76 1.69 1.74 1.81 1.83 1.83 1.80 1.84 1.85 1.81 1.91 1.98 2.00 1.91 1.90 1.89 1.80 1.74 1.72 1.68 1.51 1.41 1.41 1.39 1.43 1.46 1.47 1.41 1.40 1.38 1.40 1.41 1.45
1.91 1.91 1.89 1.87 1.89 1.92 1.93 1.91 1.88 1.85 1.82 1.80 1.80 1.79 1.79 1.82 1.85 1.78 1.73 1.71 1.68 1.66 1.63 1.63 1.62 1.61 1.61 1.61 1.61 1.60 1.60 1.60 1.58 1.57 1.57 1.55 1.56 1.61 1.66 1.68 1.68 1.67 1.64 1.60 1.60 1.59 1.58 1.59 1.60 1.62 1.67 1.70 1.73 1.73 1.79 1.81 1.80 1.85 1.81 1.80 1.77 1.79 1.84 1.93 1.95 1.90 1.86 1.84 1.77 1.75 1.78 1.74 1.59 1.48 1.45 1.42 1.41 1.45 1.50 1.47 1.45 1.45 1.40 1.38 1.42
1.89 1.91 1.91 1.91 1.91 1.91 1.92 1.89 1.88 1.88 1.85 1.81 1.77 1.76 1.76 1.78 1.78 1.75 1.72 1.68 1.68 1.67 1.66 1.65 1.63 1.63 1.64 1.64 1.62 1.62 1.62 1.60 1.60 1.61 1.61 1.60 1.65 1.68 1.69 1.68 1.67 1.66 1.63 1.64 1.66 1.64 1.59 1.60 1.62 1.65 1.65 1.69 1.72 1.74 1.78 1.81 1.82 1.82 1.83 1.82 1.77 1.88 1.83 1.94 1.89 1.89 1.85 1.86 1.77 1.75 1.81 1.76 1.63 1.56 1.49 1.43 1.43 1.45 1.48 1.49 1.52 1.48 1.43 1.39 1.41
1.82 1.87 1.89 1.93 1.91 1.88 1.86 1.82 1.82 1.82 1.82 1.82 1.82 1.76 1.73 1.72 1.72 1.72 1.71 1.70 1.68 1.68 1.68 1.67 1.66 1.66 1.68 1.69 1.69 1.67 1.66 1.65 1.65 1.66 1.66 1.69 1.70 1.68 1.67 1.64 1.61 1.62 1.64 1.66 1.64 1.63 1.65 1.66 1.66 1.65 1.68 1.72 1.74 1.78 1.82 1.80 1.82 1.85 1.89 1.91 1.82 1.82 1.85 1.86 1.87 1.89 1.86 1.83 1.80 1.77 1.80 1.79 1.66 1.61 1.53 1.45 1.42 1.48 1.48 1.49 1.51 1.52 1.46 1.41 1.42
1.75 1.79 1.83 1.89 1.87 1.84 1.83 1.79 1.76 1.76 1.76 1.77 1.78 1.76 1.73 1.72 1.70 1.69 1.67 1.67 1.67 1.68 1.68 1.67 1.68 1.71 1.72 1.73 1.72 1.72 1.72 1.71 1.72 1.73 1.73 1.72 1.71 1.68 1.64 1.63 1.63 1.65 1.65 1.65 1.68 1.67 1.67 1.67 1.68 1.68 1.71 1.70 1.72 1.75 1.81 1.85 1.89 1.89 1.88 1.89 1.88 1.83 1.84 1.85 1.83 1.82 1.86 1.86 1.84 1.80 1.78 1.79 1.72 1.64 1.58 1.49 1.42 1.48 1.51 1.49 1.50 1.51 1.48 1.43 1.43
1.78 1.77 1.82 1.84 1.85 1.86 1.78 1.75 1.73 1.70 1.69 1.69 1.73 1.73 1.69 1.66 1.66 1.66 1.65 1.65 1.66 1.67 1.68 1.69 1.72 1.74 1.75 1.75 1.75 1.77 1.78 1.77 1.76 1.76 1.75 1.73 1.69 1.68 1.70 1.70 1.69 1.70 1.72 1.75 1.77 1.77 1.74 1.72 1.70 1.71 1.75 1.79 1.77 1.77 1.81 1.83 1.91 1.93 1.90 1.91 1.89 1.90 1.88 1.83 1.78 1.81 1.85 1.90 1.90 1.84 1.79 1.77 1.79 1.69 1.60 1.53 1.43 1.43 1.53 1.51 1.48 1.48 1.46 1.44 1.45
1.77 1.78 1.76 1.78 1.79 1.79 1.76 1.75 1.75 1.73 1.73 1.73 1.72 1.70 1.67 1.64 1.64 1.65 1.66 1.66 1.66 1.67 1.69 1.72 1.73 1.74 1.75 1.76 1.78 1.79 1.79 1.78 1.76 1.74 1.75 1.73 1.69 1.69 1.73 1.74 1.74 1.75 1.79 1.84 1.86 1.86 1.85 1.84 1.80 1.77 1.79 1.80 1.81 1.80 1.84 1.88 1.88 1.90 1.92 1.97 1.94 1.93 1.90 1.85 1.79 1.80 1.82 1.85 1.92 1.88 1.81 1.79 1.76 1.78 1.65 1.58 1.47 1.41 1.50 1.52 1.49 1.46 1.44 1.43 1.44
1.72 1.71 1.69 1.72 1.73 1.72 1.73 1.74 1.76 1.76 1.76 1.75 1.72 1.69 1.69 1.68 1.68 1.69 1.70 1.70 1.69 1.71 1.73 1.75 1.75 1.74 1.76 1.78 1.79 1.79 1.79 1.78 1.76 1.74 1.72 1.72 1.73 1.76 1.75 1.72 1.74 1.81 1.90 1.96 1.96 1.95 1.96 1.95 1.93 1.90 1.86 1.87 1.92 1.88 1.93 1.94 1.90 1.85 1.86 1.91 1.96 1.97 1.94 1.92 1.82 1.80 1.82 1.84 1.92 1.97 1.86 1.83 1.78 1.79 1.69 1.61 1.51 1.42 1.47 1.55 1.51 1.46 1.42 1.41 1.42
1.66 1.67 1.68 1.69 1.70 1.71 1.72 1.73 1.76 1.76 1.73 1.72 1.70 1.70 1.70 1.73 1.74 1.76 1.76 1.73 1.73 1.73 1.73 1.75 1.74 1.74 1.76 1.78 1.79 1.78 1.77 1.79 1.77 1.73 1.71 1.70 1.71 1.74 1.75 1.72 1.78 1.83 1.90 1.95 1.95 1.92 1.92 1.94 1.96 1.96 1.96 1.99 1.97 1.97 1.96 1.97 1.88 1.85 1.89 1.88 1.92 1.95 1.99 1.93 1.85 1.80 1.79 1.79 1.88 1.93 1.91 1.86 1.81 1.81 1.72 1.68 1.56 1.44 1.42 1.47 1.56 1.47 1.44 1.41 1.40
1.61 1.65 1.66 1.69 1.70 1.70 1.74 1.76 1.78 1.77 1.74 1.71 1.70 1.72 1.74 1.73 1.80 1.79 1.79 1.77 1.75 1.75 1.76 1.77 1.76 1.77 1.79 1.81 1.80 1.80 1.78 1.76 1.76 1.74 1.69 1.69 1.74 1.74 1.71 1.71 1.72 1.76 1.86 1.93 1.94 1.92 1.88 1.91 1.93 1.95 1.99 2.06 2.08 2.06 2.01 2.02 1.88 1.92 1.99 1.96 1.95 1.89 1.93 1.99 1.91 1.83 1.81 1.80 1.85 1.91 1.96 1.93 1.87 1.84 1.78 1.74 1.65 1.50 1.40 1.40 1.49 1.49 1.47 1.43 1.41
1.58 1.62 1.63 1.65 1.65 1.64 1.66 1.70 1.75 1.77 1.79 1.78 1.73 1.72 1.74 1.75 1.76 1.75 1.72 1.75 1.75 1.76 1.78 1.78 1.80 1.79 1.80 1.78 1.79 1.81 1.76 1.73 1.73 1.69 1.67 1.70 1.74 1.72 1.73 1.75 1.81 1.85 1.89 1.91 1.93 1.93 1.91 1.90 1.91 1.95 1.98 1.97 1.99 2.02 2.06 2.04 1.96 1.95 2.00 2.07 2.05 1.93 1.97 2.00 2.01 1.95 1.86 1.82 1.89 1.93 1.93 1.96 1.92 1.88 1.85 1.79 1.79 1.65 1.45 1.36 1.41 1.47 1.48 1.46 1.43
1.47 1.51 1.62 1.67 1.63 1.65 1.66 1.66 1.66 1.69 1.74 1.77 1.79 1.78 1.80 1.79 1.73 1.78 1.75 1.72 1.75 1.79 1.79 1.78 1.79 1.78 1.78 1.77 1.75 1.74 1.72 1.69 1.68 1.68 1.66 1.69 1.73 1.75 1.79 1.85 1.92 1.91 1.91 1.89 1.87 1.87 1.88 1.90 1.89 1.88 1.91 1.92 1.93 1.92 1.91 1.94 1.94 1.88 1.90 1.95 1.96 1.96 1.99 2.00 1.99 1.95 1.93 1.91 1.94 1.97 1.93 1.99 1.97 1.93 1.90 1.86 1.85 1.80 1.62 1.40 1.37 1.42 1.47 1.46 1.43
1.39 1.48 1.54 1.65 1.66 1.67 1.69 1.66 1.66 1.69 1.72 1.74 1.76 1.77 1.83 1.76 1.75 1.77 1.76 1.73 1.74 1.78 1.77 1.77 1.78 1.76 1.79 1.76 1.74 1.71 1.65 1.63 1.63 1.64 1.63 1.63 1.70 1.75 1.83 1.92 1.94 1.94 1.90 1.86 1.80 1.75 1.77 1.80 1.80 1.78 1.77 1.75 1.74 1.76 1.77 1.80 1.81 1.84 1.83 1.87 1.93 1.96 1.98 1.99 1.97 1.96 1.95 2.00 2.01 2.05 2.03 2.04 2.08 2.00 1.95 1.90 1.88 1.86 1.76 1.55 1.40 1.40 1.44 1.46 1.44
1.38 1.48 1.51 1.67 1.70 1.65 1.67 1.69 1.69 1.72 1.72 1.75 1.75 1.74 1.78 1.78 1.72 1.72 1.72 1.71 1.71 1.73 1.74 1.76 1.77 1.78 1.79 1.79 1.76 1.70 1.64 1.62 1.62 1.62 1.65 1.67 1.71 1.79 1.87 1.93 1.90 1.86 1.83 1.79 1.75 1.68 1.68 1.69 1.69 1.68 1.67 1.68 1.64 1.61 1.62 1.65 1.71 1.80 1.83 1.85 1.87 1.89 1.89 1.91 1.93 1.92 1.91 1.95 2.00 2.03 2.05 2.04 2.07 2.07 2.00 1.94 1.89 1.92 1.86 1.71 1.50 1.42 1.43 1.43 1.45
1.39 1.52 1.56 1.58 1.67 1.68 1.70 1.69 1.72 1.74 1.71 1.73 1.74 1.73 1.79 1.79 1.73 1.71 1.71 1.71 1.68 1.70 1.74 1.77 1.78 1.81 1.81 1.82 1.81 1.76 1.67 1.63 1.61 1.62 1.64 1.72 1.75 1.80 1.83 1.82 1.82 1.80 1.79 1.71 1.64 1.59 1.61 1.61 1.62 1.61 1.63 1.63 1.58 1.57 1.57 1.58 1.63 1.69 1.73 1.75 1.79 1.82 1.83 1.84 1.86 1.88 1.89 1.90 1.91 1.95 2.00 2.03 2.03 2.07 2.06 2.00 1.94 1.93 1.95 1.88 1.66 1.51 1.45 1.44 1.43
1.43 1.42 1.48 1.57 1.63 1.66 1.67 1.65 1.67 1.70 1.69 1.71 1.70 1.77 1.82 1.78 1.76 1.73 1.70 1.69 1.68 1.67 1.72 1.76 1.78 1.80 1.82 1.82 1.81 1.75 1.68 1.64 1.61 1.59 1.64 1.73 1.76 1.76 1.75 1.77 1.77 1.75 1.74 1.64 1.60 1.57 1.53 1.53 1.53 1.54 1.58 1.60 1.58 1.58 1.61 1.63 1.62 1.62 1.64 1.67 1.70 1.72 1.76 1.80 1.81 1.80 1.84 1.87 1.89 1.90 1.91 1.97 2.03 2.06 2.08 2.07 2.03 1.97 1.98 1.95 1.86 1.64 1.53 1.46 1.44
1.34 1.39 1.50 1.54 1.60 1.61 1.61 1.61 1.56 1.60 1.65 1.74 1.79 1.76 1.79 1.83 1.84 1.80 1.70 1.67 1.69 1.67 1.70 1.75 1.78 1.79 1.80 1.82 1.76 1.72 1.67 1.64 1.60 1.58 1.62 1.72 1.71 1.71 1.71 1.72 1.70 1.68 1.69 1.62 1.57 1.57 1.55 1.54 1.54 1.56 1.59 1.58 1.53 1.55 1.57 1.59 1.62 1.63 1.63 1.63 1.64 1.66 1.70 1.74 1.80 1.81 1.81 1.83 1.86 1.89 1.89 1.90 1.96 2.05 2.09 2.11 2.09 2.02 1.99 1.98 1.93 1.80 1.64 1.54 1.47
1.35 1.37 1.44 1.47 1.50 1.50 1.52 1.50 1.49 1.52 1.55 1.66 1.69 1.67 1.71 1.75 1.79 1.80 1.75 1.71 1.66 1.65 1.70 1.73 1.77 1.76 1.79 1.80 1.79 1.73 1.66 1.64 1.62 1.58 1.61 1.66 1.65 1.67 1.67 1.67 1.66 1.65 1.65 1.60 1.54 1.52 1.52 1.53 1.55 1.56 1.58 1.56 1.51 1.52 1.54 1.54 1.54 1.57 1.59 1.62 1.62 1.60 1.64 1.69 1.73 1.78 1.83 1.85 1.84 1.85 1.87 1.87 1.90 1.96 2.03 2.10 2.04 2.01 1.96 1.97 1.97 1.89 1.79 1.69 1.60
1.28 1.33 1.40 1.42 1.43 1.43 1.43 1.41 1.43 1.47 1.51 1.59 1.60 1.63 1.65 1.68 1.71 1.73 1.74 1.75 1.69 1.66 1.69 1.73 1.72 1.76 1.79 1.77 1.76 1.70 1.67 1.65 1.60 1.59 1.60 1.58 1.63 1.64 1.62 1.61 1.64 1.63 1.61 1.57 1.55 1.52 1.50 1.51 1.53 1.53 1.53 1.50 1.48 1.45 1.48 1.47 1.46 1.45 1.45 1.49 1.54 1.56 1.57 1.60 1.63 1.68 1.78 1.87 1.88 1.87 1.87 1.89 1.90 1.94 2.01 2.04 2.04 2.05 1.99 1.94 1.96 1.90 1.85 1.77 1.75
1.31 1.36 1.39 1.40 1.44 1.40 1.36 1.37 1.41 1.43 1.45 1.53 1.54 1.56 1.58 1.57 1.66 1.68 1.71 1.75 1.71 1.71 1.73 1.73 1.78 1.79 1.76 1.75 1.74 1.71 1.67 1.63 1.61 1.61 1.57 1.55 1.59 1.61 1.60 1.59 1.59 1.59 1.57 1.52 1.56 1.55 1.51 1.52 1.53 1.52 1.48 1.46 1.43 1.43 1.42 1.40 1.41 1.41 1.39 1.36 1.35 1.36 1.35 1.36 1.43 1.50 1.63 1.79 1.86 1.88 1.89 1.91 1.94 1.94 1.98 2.03 2.04 2.02 1.96 1.93 1.88 1.88 1.84 1.79 1.77
1.35 1.34 1.37 1.40 1.45 1.41 1.37 1.38 1.42 1.43 1.43 1.46 1.53 1.55 1.57 1.51 1.57 1.67 1.73 1.75 1.76 1.76 1.73 1.75 1.78 1.77 1.77 1.79 1.77 1.74 1.70 1.67 1.64 1.61 1.58 1.55 1.55 1.55 1.55 1.57 1.56 1.56 1.55 1.52 1.56 1.57 1.56 1.52 1.49 1.44 1.40 1.38 1.37 1.39 1.35 1.29 1.25 1.22 1.21 1.17 1.17 1.19 1.18 1.20 1.23 1.28 1.36 1.52 1.68 1.77 1.84 1.87 1.93 1.97 1.98 1.98 2.00 1.99 1.97 1.93 1.88 1.86 1.88 1.85 1.84
1.31 1.31 1.35 1.39 1.42 1.43 1.41 1.39 1.43 1.44 1.44 1.46 1.53 1.55 1.53 1.50 1.55 1.62 1.70 1.75 1.78 1.75 1.72 1.71 1.72 1.77 1.85 1.86 1.82 1.75 1.73 1.70 1.66 1.60 1.54 1.52 1.52 1.52 1.54 1.54 1.54 1.55 1.53 1.51 1.53 1.55 1.51 1.48 1.45 1.42 1.38 1.31 1.27 1.26 1.23 1.13 1.06 1.04 1.04 1.02 1.05 1.05 1.07 1.12 1.16 1.21 1.25 1.31 1.44 1.56 1.65 1.74 1.83 1.90 1.95 1.98 1.95 1.93 1.92 1.95 1.95 1.94 1.96 1.94 1.91
1.34 1.37 1.37 1.38 1.38 1.44 1.42 1.42 1.48 1.46 1.43 1.44 1.50 1.52 1.52 1.54 1.55 1.58 1.68 1.75 1.79 1.81 1.78 1.76 1.79 1.84 1.89 1.93 1.89 1.84 1.81 1.75 1.71 1.64 1.59 1.56 1.55 1.53 1.53 1.56 1.57 1.55 1.52 1.51 1.51 1.48 1.42 1.38 1.35 1.34 1.25 1.20 1.13 1.10 1.08 1.01 0.94 0.94 0.96 0.98 1.01 1.00 1.03 1.03 1.03 1.06 1.11 1.17 1.21 1.26 1.35 1.46 1.58 1.72 1.84 1.94 1.97 1.98 1.94 1.94 1.93 1.93 1.94 1.93 1.95
1.31 1.36 1.39 1.35 1.44 1.52 1.51 1.51 1.51 1.45 1.44 1.47 1.50 1.51 1.51 1.52 1.56 1.60 1.66 1.70 1.76 1.80 1.80 1.81 1.85 1.86 1.86 1.89 1.91 1.89 1.83 1.80 1.74 1.70 1.68 1.62 1.58 1.56 1.56 1.57 1.60 1.56 1.55 1.52 1.43 1.38 1.32 1.29 1.24 1.18 1.10 1.06 1.01 0.99 0.97 0.92 0.93 0.94 0.93 0.95 0.94 0.94 0.95 0.93 0.94 0.94 0.96 0.97 1.06 1.12 1.18 1.23 1.27 1.38 1.58 1.77 1.89 1.97 2.04 2.03 2.01 1.98 1.93 1.94 1.91
1.35 1.34 1.32 1.34 1.43 1.48 1.53 1.51 1.54 1.48 1.48 1.48 1.50 1.52 1.53 1.50 1.51 1.55 1.60 1.67 1.77 1.82 1.87 1.88 1.85 1.87 1.87 1.84 1.83 1.80 1.78 1.77 1.76 1.68 1.62 1.60 1.56 1.55 1.58 1.59 1.59 1.58 1.54 1.49 1.37 1.32 1.29 1.21 1.16 1.02 0.99 1.02 1.00 1.02 1.04 0.99 0.91 0.85 0.88 0.91 0.89 0.92 0.93 0.90 0.92 0.94 0.94 0.94 0.94 0.96 1.04 1.13 1.18 1.22 1.30 1.47 1.69 1.81 1.96 2.07 2.05 2.02 2.00 1.95 1.88
1.32 1.34 1.36 1.42 1.41 1.47 1.53 1.50 1.55 1.52 1.51 1.52 1.54 1.55 1.54 1.53 1.52 1.54 1.55 1.62 1.74 1.80 1.81 1.87 1.88 1.88 1.88 1.88 1.86 1.80 1.79 1.81 1.78 1.77 1.69 1.66 1.64 1.61 1.64 1.64 1.61 1.58 1.52 1.43 1.33 1.26 1.21 1.12 1.07 1.01 0.93 0.96 1.00 1.08 1.13 1.02 0.94 0.93 0.99 0.97 0.95 0.96 0.93 0.94 0.96 0.98 1.02 1.00 0.98 1.00 1.06 1.10 1.13 1.15 1.20 1.29 1.46 1.66 1.78 1.89 1.97 2.02 2.03 1.99 1.90
1.31 1.35 1.36 1.39 1.39 1.44 1.50 1.48 1.47 1.48 1.50 1.54 1.56 1.55 1.54 1.52 1.53 1.55 1.56 1.62 1.77 1.80 1.81 1.88 1.97 1.85 1.89 1.92 1.94 1.92 1.88 1.88 1.88 1.90 1.85 1.80 1.76 1.76 1.73 1.68 1.64 1.57 1.45 1.34 1.26 1.22 1.14 1.06 1.03 1.03 1.05 1.02 1.07 1.09 1.08 1.07 1.02 1.06 1.07 1.04 1.03 1.01 1.00 1.03 1.06 1.08 1.12 1.09 1.08 1.09 1.10 1.11 1.15 1.16 1.14 1.19 1.29 1.45 1.61 1.72 1.81 1.93 1.99 1.97 1.94
1.31 1.34 1.37 1.36 1.34 1.38 1.40 1.42 1.44 1.48 1.49 1.50 1.52 1.53 1.52 1.53 1.55 1.58 1.64 1.64 1.69 1.79 1.71 1.73 1.72 1.76 1.79 1.81 1.90 1.93 1.94 1.95 1.94 1.92 1.89 1.88 1.85 1.78 1.71 1.67 1.65 1.52 1.36 1.25 1.17 1.16 1.12 1.07 1.00 1.08 1.13 1.10 1.09 1.05 1.00 1.03 1.09 1.12 1.10 1.08 1.07 1.06 1.06 1.08 1.12 1.14 1.12 1.12 1.16 1.15 1.16 1.19 1.21 1.21 1.20 1.19 1.23 1.28 1.41 1.55 1.68 1.80 1.89 1.95 1.95
1.35 1.34 1.34 1.36 1.37 1.35 1.37 1.40 1.43 1.46 1.48 1.52 1.55 1.54 1.54 1.57 1.64 1.75 1.75 1.69 1.68 1.70 1.70 1.71 1.79 1.83 1.79 1.84 1.90 1.89 1.85 1.83 1.80 1.80 1.75 1.74 1.73 1.73 1.67 1.65 1.56 1.40 1.24 1.11 1.07 1.08 1.08 1.06 1.02 1.05 1.13 1.16 1.11 1.06 1.03 1.03 1.06 1.12 1.09 1.06 1.08 1.06 1.07 1.13 1.18 1.14 1.14 1.16 1.15 1.16 1.18 1.21 1.26 1.28 1.30 1.29 1.28 1.34 1.40 1.47 1.58 1.67 1.75 1.82 1.87
1.35 1.37 1.35 1.36 1.34 1.35 1.38 1.39 1.41 1.44 1.49 1.52 1.53 1.51 1.51 1.50 1.51 1.56 1.54 1.54 1.53 1.53 1.56 1.60 1.70 1.65 1.69 1.74 1.79 1.78 1.78 1.79 1.76 1.75 1.70 1.65 1.61 1.59 1.55 1.50 1.37 1.20 1.05 0.97 1.00 1.03 1.01 1.02 1.03 1.07 1.11 1.13 1.15 1.08 1.07 1.06 1.07 1.10 1.07 1.05 1.10 1.05 1.07 1.13 1.15 1.17 1.18 1.18 1.15 1.11 1.08 1.15 1.19 1.24 1.29 1.36 1.40 1.42 1.45 1.49 1.53 1.59 1.68 1.76 1.85
1.31 1.33 1.32 1.34 1.35 1.34 1.34 1.30 1.36 1.42 1.44 1.44 1.44 1.43 1.38 1.40 1.41 1.35 1.30 1.36 1.37 1.43 1.45 1.50 1.54 1.54 1.57 1.59 1.61 1.63 1.65 1.66 1.66 1.65 1.61 1.57 1.51 1.43 1.35 1.23 1.14 1.03 0.96 0.93 0.97 0.98 1.01 1.04 1.10 1.17 1.07 1.03 1.04 1.10 1.10 1.13 1.04 1.01 1.03 0.98 0.99 1.04 1.09 1.12 1.10 1.14 1.18 1.20 1.15 1.03 1.03 1.04 1.08 1.11 1.19 1.25 1.26 1.30 1.38 1.46 1.53 1.57 1.61 1.67 1.74
1.20 1.29 1.28 1.32 1.35 1.37 1.33 1.30 1.34 1.37 1.42 1.43 1.41 1.40 1.38 1.33 1.28 1.26 1.29 1.32 1.35 1.35 1.36 1.43 1.44 1.47 1.45 1.42 1.41 1.42 1.44 1.38 1.37 1.40 1.40 1.36 1.29 1.21 1.14 1.02 0.97 0.93 0.93 0.94 0.95 0.99 1.01 1.02 1.02 0.96 1.06 1.00 0.96 1.06 1.09 1.09 0.98 0.88 0.83 0.82 0.84 0.92 1.09 1.07 1.04 1.13 1.19 1.21 1.15 1.08 1.06 1.05 1.06 1.09 1.11 1.12 1.15 1.18 1.21 1.25 1.33 1.42 1.54 1.62 1.68
1.24 1.27 1.32 1.33 1.35 1.35 1.33 1.32 1.32 1.37 1.42 1.44 1.42 1.37 1.39 1.41 1.36 1.33 1.29 1.27 1.38 1.42 1.40 1.40 1.37 1.30 1.31 1.33 1.34 1.31 1.26 1.23 1.25 1.24 1.21 1.19 1.16 1.11 1.02 1.01 0.95 0.94 0.88 0.89 0.91 0.90 0.94 0.97 0.98 0.91 0.88 1.00 1.00 1.11 1.11 1.14 0.93 0.97 0.94 0.80 0.73 0.65 0.85 0.98 1.00 1.07 1.15 1.15 1.09 1.06 1.05 1.05 1.07 1.09 1.08 1.05 1.06 1.09 1.13 1.18 1.20 1.27 1.33 1.40 1.54
1.24 1.28 1.31 1.29 1.32 1.32 1.31 1.29 1.31 1.40 1.42 1.43 1.43 1.44 1.42 1.43 1.44 1.39 1.37 1.31 1.26 1.36 1.35 1.33 1.28 1.25 1.24 1.27 1.24 1.20 1.16 1.15 1.16 1.15 1.14 1.13 1.10 1.04 1.03 0.98 0.94 0.96 0.93 0.89 0.91 0.91 0.95 0.97 0.96 0.93 0.92 0.84 0.94 0.98 1.10 1.13 1.06 0.93 0.69 0.73 0.75 0.72 0.59 0.71 0.82 0.97 1.10 1.08 1.02 0.99 1.00 0.97 0.99 1.02 1.02 0.96 0.96 0.97 1.01 1.08 1.11 1.15 1.19 1.25 1.29
1.17 1.21 1.26 1.28 1.28 1.26 1.27 1.26 1.29 1.35 1.38 1.40 1.40 1.41 1.37 1.34 1.36 1.37 1.37 1.32 1.31 1.27 1.22 1.18 1.22 1.23 1.22 1.17 1.13 1.15 1.11 1.09 1.09 1.09 1.09 1.07 1.06 1.04 1.01 1.02 0.98 0.98 1.00 0.96 0.92 0.94 0.97 0.97 0.96 0.94 0.93 0.89 0.84 0.92 1.02 1.11 1.07 1.07 0.87 0.76 0.68 0.64 0.67 0.79 0.83 0.84 0.96 0.97 0.96 0.94 0.95 0.91 0.90 0.92 0.93 0.95 1.00 1.00 1.00 0.99 1.02 1.07 1.11 1.13 1.17
1.13 1.21 1.27 1.29 1.29 1.26 1.27 1.26 1.29 1.33 1.30 1.34 1.38 1.35 1.28 1.22 1.19 1.14 1.07 1.07 1.05 1.06 1.01 1.02 1.10 1.09 1.05 1.14 1.19 1.18 1.14 1.10 1.11 1.11 1.10 1.09 1.06 1.08 1.07 1.03 1.01 1.02 1.02 0.99 0.97 0.98 0.96 0.95 0.98 0.95 0.93 0.98 0.90 0.86 0.87 1.02 1.05 1.03 1.04 0.94 0.83 0.67 0.70 0.81 0.77 0.65 0.88 0.96 0.92 0.90 0.87 0.85 0.86 0.86 0.88 0.90 0.92 0.94 0.98 0.97 0.99 0.99 1.04 1.09 1.13
1.12 1.25 1.29 1.30 1.30 1.27 1.24 1.23 1.25 1.26 1.29 1.30 1.37 1.35 1.27 1.23 1.19 1.13 1.10 1.06 1.01 1.07 1.18 1.22 1.18 1.17 1.18 1.12 1.13 1.18 1.18 1.12 1.12 1.13 1.13 1.15 1.14 1.14 1.12 1.06 1.03 1.04 1.05 1.01 0.97 0.96 0.97 0.96 0.99 0.95 0.97 0.99 0.97 0.84 0.83 0.87 0.97 1.01 1.02 1.01 1.01 1.02 0.97 0.80 0.65 0.72 0.60 0.74 0.80 0.77 0.77 0.79 0.81 0.82 0.82 0.85 0.86 0.86 0.87 0.90 0.91 0.97 0.99 1.03 1.07
1.16 1.25 1.28 1.29 1.27 1.25 1.22 1.20 1.25 1.28 1.29 1.32 1.36 1.38 1.27 1.25 1.21 1.19 1.17 1.12 1.08 1.09 1.18 1.20 1.24 1.20 1.14 1.14 1.15 1.15 1.18 1.17 1.15 1.16 1.17 1.17 1.17 1.12 1.08 1.03 1.03 1.04 1.01 0.98 0.97 1.00 1.00 1.02 1.04 1.01 1.02 1.01 0.97 0.88 0.86 0.92 0.82 0.86 1.01 0.98 0.98 1.00 0.99 0.95 0.84 0.68 0.60 0.54 0.58 0.72 0.77 0.74 0.75 0.77 0.78 0.77 0.77 0.78 0.78 0.81 0.83 0.85 0.89 0.95 1.00
1.20 1.22 1.24 1.27 1.28 1.27 1.24 1.22 1.24 1.28 1.32 1.34 1.35 1.37 1.34 1.30 1.25 1.21 1.17 1.19 1.20 1.22 1.28 1.27 1.22 1.21 1.14 1.15 1.15 1.17 1.18 1.18 1.19 1.18 1.19 1.17 1.14 1.07 1.03 1.02 1.01 0.99 1.00 0.99 0.99 0.99 0.98 0.98 0.97 0.97 0.96 0.98 0.99 0.97 0.93 0.89 0.91 0.87 0.91 0.91 0.94 0.90 0.91 0.90 0.85 0.81 0.65 0.55 0.54 0.56 0.58 0.69 0.70 0.69 0.71 0.74 0.75 0.77 0.77 0.77 0.79 0.80 0.81 0.82 0.86
1.22 1.27 1.30 1.30 1.28 1.26 1.22 1.20 1.20 1.27 1.33 1.35 1.37 1.37 1.37 1.36 1.30 1.26 1.18 1.18 1.22 1.24 1.26 1.22 1.18 1.17 1.11 1.10 1.13 1.13 1.14 1.13 1.15 1.17 1.15 1.13 1.09 1.06 1.03 0.99 0.97 0.97 0.95 0.93 0.93 0.94 0.95 0.94 0.95 0.95 0.95 0.91 0.96 0.94 0.90 0.94 0.95 0.93 0.91 0.86 0.80 0.83 0.83 0.82 0.80 0.78 0.74 0.67 0.51 0.52 0.57 0.55 0.52 0.58 0.68 0.67 0.68 0.71 0.73 0.72 0.71 0.73 0.76 0.79 0.81
1.25 1.27 1.28 1.28 1.26 1.24 1.20 1.17 1.19 1.28 1.33 1.34 1.36 1.35 1.40 1.40 1.34 1.31 1.24 1.19 1.20 1.20 1.17 1.13 1.13 1.11 1.05 1.06 1.06 1.07 1.10 1.10 1.12 1.11 1.10 1.10 1.08 1.06 1.01 0.98 0.97 0.96 0.92 0.89 0.87 0.89 0.93 0.94 0.96 0.96 0.92 0.88 0.89 0.93 0.94 0.98 0.99 0.95 0.93 0.91 0.84 0.82 0.76 0.70 0.70 0.72 0.68 0.61 0.59 0.55 0.57 0.60 0.57 0.56 0.64 0.71 0.72 0.73 0.74 0.73 0.70 0.67 0.69 0.71 0.76
Wind_Speed
14 15 16 17 19 20 20 19 19 20 20 19 19 19 18 18 18 18 17 16 16 16 16 16 16 16 16 15 15 14 13 13 12 11 11 10 9 9 9 8 8 8 8 8 9 9 9 9 9 9 9 9 9 9 10 10 10 10 9 8 8 8 8 8 9 9 9 9 9 9 9 9 8 8 8 8 7 7 7 6 6 6 6 7 8
15 16 17 18 19 20 20 19 19 19 19 19 18 18 17 17 17 17 16 16 16 15 15 16 16 16 15 15 14 13 13 12 11 11 10 10 9 9 8 8 8 8 8 8 8 8 8 8 8 8 9 9 9 9 10 10 10 10 9 8 7 7 7 7 8 8 8 9 9 9 9 9 8 8 8 8 7 7 7 7 7 7 7 8 9
17 17 17 18 19 19 19 18 18 18 18 18 18 17 16 16 16 16 16 15 15 15 15 15 15 15 15 14 14 13 12 12 11 10 10 10 9 9 8 8 8 8 8 8 8 8 8 8 8 8 8 8 9 9 9 9 9 9 9 8 7 6 6 6 7 8 8 8 9 9 9 9 8 8 8 8 7 7 7 7 7 7 8 8 9
17 17 17 18 19 18 18 17 17 17 18 17 17 16 16 16 16 16 15 15 15 15 15 15 15 15 14 13 13 12 12 11 11 10 10 9 9 9 8 8 8 8 8 8 8 7 7 7 7 8 8 8 8 8 9 9 9 9 9 8 7 6 5 5 5 6 7 8 9 9 9 8 8 8 8 8 7 7 7 7 8 8 8 8 9
17 17 17 17 18 17 17 16 16 17 17 16 16 16 15 15 15 15 15 15 15 15 15 14 14 14 13 13 12 12 11 11 10 9 9 9 8 8 8 7 7 7 7 7 7 7 7 7 7 7 7 7 7 7 7 8 8 8 8 8 7 6 5 4 4 5 6 7 8 9 9 8 8 7 8 8 7 7 7 7 8 8 9 9 9
17 17 17 17 16 16 17 16 16 16 16 16 16 15 15 15 15 15 15 15 14 14 14 14 13 13 12 12 11 11 10 10 9 9 8 8 8 7 7 7 7 6 6 7 7 7 7 7 6 6 6 6 6 6 6 7 7 7 7 7 7 6 5 4 3 4 5 6 7 8 9 8 7 7 7 7 7 7 7 7 8 8 8 9 9
18 17 17 17 16 16 16 16 16 16 16 16 16 15 15 15 15 15 15 14 14 14 13 13 12 12 11 11 10 10 9 9 8 8 8 7 7 7 6 6 6 6 6 6 6 6 6 6 6 6 6 6 5 5 6 6 6 6 6 7 6 6 5 4 3 3 3 4 5 7 8 8 8 7 7 7 7 7 7 7 7 8 8 8 9
17 17 17 17 16 16 16 16 16 16 16 15 15 14 14 14 15 14 14 14 13 13 12 12 11 11 10 10 9 9 9 8 8 7 7 7 6 6 6 5 5 5 5 5 5 5 5 6 6 6 6 5 5 5 5 5 6 6 6 6 6 5 5 4 3 2 2 3 4 5 6 7 7 7 7 6 6 6 7 7 7 7 8 8 9
17 16 16 16 16 16 15 16 16 15 15 15 15 14 14 14 14 14 13 13 13 12 11 11 11 10 9 9 9 9 8 8 7 7 6 6 6 5 5 4 4 4 4 5 5 5 5 5 6 6 5 5 5 5 5 4 5 5 5 6 5 5 5 4 3 2 2 2 2 4 5 6 7 7 6 6 6 6 6 6 7 7 7 8 8
17 17 16 16 16 15 15 15 15 15 15 15 15 14 14 14 14 13 13 12 12 11 11 10 10 9 9 9 8 8 7 7 7 6 6 5 5 4 4 4 4 4 4 4 4 5 5 5 5 5 5 5 5 5 4 4 4 4 4 5 5 4 5 4 3 2 2 1 2 2 3 4 5 6 6 6 5 5 6 6 6 7 7 8 8
17 16 16 15 15 15 15 14 14 14 14 14 14 14 14 14 13 13 12 12 12 11 10 10 9 9 8 8 8 7 7 6 6 6 5 5 4 4 4 3 3 4 4 4 4 5 5 5 5 5 5 5 5 4 4 4 3 3 3 4 4 4 4 4 3 2 1 1 1 1 2 3 4 5 5 5 5 5 5 6 6 6 7 7 7
16 16 15 15 15 15 14 14 14 14 14 14 13 13 13 13 13 12 12 12 11 11 10 9 9 9 8 8 7 7 6 6 5 5 5 4 4 3 3 3 3 3 4 4 4 5 5 5 5 5 5 5 5 4 4 4 3 3 3 3 4 4 4 3 3 3 1 1 1 1 1 2 3 3 4 5 5 5 5 5 6 6 6 7 7
16 15 15 15 15 14 14 14 13 13 13 13 13 13 13 12 12 12 12 11 11 10 10 9 9 8 8 7 7 6 6 6 5 4 4 3 3 3 3 3 3 3 3 4 4 5 5 5 5 5 5 5 5 5 4 4 4 3 3 3 3 3 3 3 3 2 1 0 1 1 1 1 2 2 3 4 4 4 4 5 5 6 6 6 7
15 14 15 14 14 14 14 13 13 13 13 12 12 12 12 12 12 11 11 11 10 10 9 9 8 8 8 7 6 6 5 5 4 4 3 3 3 3 3 3 3 3 3 4 4 5 5 5 5 6 6 5 5 5 5 5 4 3 3 3 3 3 3 3 3 2 2 0 1 1 1 1 1 1 2 3 3 4 4 4 5 6 6 6 7
14 14 14 14 14 14 13 13 12 12 12 12 12 12 12 11 11 11 10 10 10 9 9 8 8 8 7 7 6 5 4 4 4 3 3 2 2 2 2 2 3 3 3 4 4 5 5 6 6 6 6 6 6 6 6 5 5 4 3 3 3 3 3 3 3 2 1 0 1 2 2 2 2 1 1 2 2 3 3 4 5 6 6 6 6
14 14 13 13 13 13 13 12 12 12 12 12 11 11 11 11 10 10 10 10 9 9 9 8 8 7 6 6 5 5 4 4 3 3 2 2 2 2 2 2 2 3 4 4 4 5 5 6 6 6 7 6 6 6 6 6 6 6 4 4 4 4 4 3 3 2 2 1 1 2 3 3 3 3 2 2 2 3 3 4 5 6 6 6 6
13 13 12 12 12 12 12 12 12 12 11 11 11 11 11 10 10 10 10 9 9 8 8 8 7 6 6 5 5 4 4 4 3 3 2 2 1 1 2 3 3 3 4 5 5 5 6 6 6 7 7 7 6 6 6 6 6 7 6 5 5 5 4 3 3 3 2 2 2 2 3 3 4 4 3 3 3 3 3 4 5 5 6 6 6
13 12 12 12 12 11 11 11 11 11 11 11 10 10 10 10 10 10 9 9 8 8 7 7 6 6 5 5 4 4 4 4 3 3 2 2 1 1 1 2 3 4 5 5 5 5 6 6 7 7 7 7 7 6 6 6 6 7 6 6 5 5 5 4 3 3 3 3 3 3 3 4 4 4 4 4 4 4 4 4 5 5 6 6 6
12 12 12 12 11 11 11 11 11 11 10 10 10 10 10 10 10 9 8 8 7 7 7 6 5 5 5 4 4 4 4 3 3 2 1 1 2 2 2 2 3 4 5 6 6 6 6 7 7 7 8 8 8 7 6 6 6 6 6 6 5 5 5 4 4 4 3 3 4 4 4 5 5 5 6 6 5 5 5 5 5 5 6 6 6
12 12 12 12 12 12 11 11 11 10 10 10 10 9 9 9 9 8 8 7 7 6 6 5 5 5 4 4 3 3 3 2 2 1 0 1 2 2 2 3 4 5 6 6 6 7 7 7 7 8 8 8 9 9 8 7 7 7 6 6 5 5 5 5 5 5 5 4 5 5 5 6 6 6 7 7 7 6 6 6 6 6 6 6 7
12 12 12 12 12 12 11 11 10 10 10 10 9 9 8 8 8 7 7 7 6 6 5 5 5 4 4 3 3 2 2 1 1 0 0 1 2 3 3 4 5 5 6 7 7 7 7 7 8 8 8 9 9 9 9 8 7 7 6 6 6 5 5 6 6 6 6 5 5 6 6 7 7 7 8 9 8 7 7 7 7 7 7 7 7
13 12 12 12 12 11 11 11 10 10 10 9 9 8 8 8 7 7 6 6 6 5 5 5 4 4 4 3 3 2 2 1 0 0 1 2 2 3 4 4 5 5 6 7 7 8 7 7 7 7 8 8 9 9 9 9 8 7 7 7 6 6 6 6 6 6 6 6 6 6 7 7 8 8 9 10 10 9 8 8 8 8 8 7 7
13 13 12 12 12 11 11 10 10 9 9 9 8 8 7 7 6 6 6 6 5 5 5 4 4 4 3 3 2 2 1 0 1 1 2 2 3 4 4 4 5 5 6 7 7 7 7 7 7 7 7 8 8 9 9 9 8 8 8 7 7 6 6 6 6 7 7 7 7 7 7 7 8 9 10 11 11 10 10 9 9 9 8 8 8
13 12 12 12 11 11 10 10 10 9 9 8 8 7 7 7 6 6 5 5 5 5 4 4 4 3 3 2 1 1 0 1 1 2 2 3 3 4 4 4 5 5 6 6 7 7 7 7 7 7 7 8 8 8 9 9 9 8 8 8 7 7 7 7 7 8 8 8 8 8 8 8 9 9 11 12 12 12 11 11 10 10 9 9 9
13 12 11 11 11 11 10 10 9 9 8 8 8 7 7 6 6 5 5 5 4 4 4 3 3 2 2 1 1 1 1 2 2 3 3 3 3 4 4 5 5 5 6 6 7 7 7 7 8 8 8 8 9 9 9 9 9 9 8 8 8 8 8 8 9 9 9 9 9 9 9 9 10 10 11 13 14 13 13 12 11 11 10 10 10
12 11 11 11 11 11 10 10 9 9 8 7 7 7 6 6 5 5 4 4 4 3 3 3 3 2 2 2 1 1 2 2 2 3 3 3 3 4 4 5 5 6 6 7 7 8 8 8 8 8 9 9 9 9 10 10 9 9 9 9 9 9 9 10 10 10 10 10 10 10 10 10 10 11 12 13 15 15 14 14 13 12 12 11 11
12 12 11 11 11 11 11 10 9 9 8 7 6 6 6 5 5 4 4 4 3 3 3 3 3 2 2 2 2 2 2 2 2 3 3 3 3 4 4 5 5 6 7 7 8 8 8 9 9 9 9 9 9 10 10 10 10 10 10 10 10 10 10 10 11 11 11 11 11 11 11 11 11 12 12 14 15 15 15 15 14 14 13 12 12
12 12 11 11 11 11 11 10 9 9 8 7 6 5 5 5 5 4 4 4 3 3 3 3 3 3 3 2 2 2 2 2 2 2 3 3 3 4 4 5 6 6 7 7 8 9 9 9 9 9 10 10 10 10 11 11 11 11 11 11 11 11 11 11 11 11 11 11 11 11 11 12 12 12 13 14 14 15 15 15 15 15 14 14 14
12 12 11 11 11 11 10 10 9 8 7 7 6 5 5 5 5 5 4 4 4 4 3 3 3 3 3 3 2 2 2 2 2 2 2 3 3 4 4 5 6 6 7 7 8 9 9 9 9 9 9 10 11 11 12 12 12 12 11 11 11 12 12 12 11 11 11 11 11 11 11 12 12 12 12 13 14 15 16 16 16 16 16 16 15
12 11 11 11 10 10 10 9 9 8 7 6 5 4 4 4 4 5 5 4 4 4 3 3 3 3 3 3 3 2 2 2 2 2 3 3 4 4 5 5 6 7 7 8 9 9 9 9 9 9 10 10 11 12 12 13 13 12 12 12 12 12 12 12 12 12 11 11 11 11 11 11 12 12 12 13 13 14 16 17 16 17 17 17 17
11 11 11 11 10 10 9 9 8 7 7 6 5 4 4 4 5 5 5 5 4 4 4 4 3 3 4 4 4 3 3 3 3 3 3 4 5 5 6 6 6 7 7 8 9 9 9 9 10 10 10 11 12 12 13 13 13 13 12 12 12 12 12 12 12 12 11 11 11 11 11 12 12 12 12 12 13 14 16 17 17 18 18 18 18
11 11 11 10 10 10 9 8 8 7 6 6 5 5 4 4 5 5 5 5 4 4 4 4 4 4 4 4 4 4 4 4 4 4 4 5 5 6 6 7 7 7 8 8 9 9 10 10 10 11 12 12 12 13 13 13 12 12 12 12 12 12 12 12 11 11 11 11 11 12 12 13 13 13 13 13 14 15 16 17 18 19 19 19 19
11 11 11 10 10 9 9 8 8 7 7 6 6 5 5 4 5 5 5 5 5 5 4 4 4 4 5 5 5 6 6 6 5 6 6 6 6 6 7 7 7 8 8 9 9 10 10 11 11 12 12 12 12 12 12 12 12 12 12 12 11 11 11 11 11 11 11 12 12 12 13 14 14 14 14 14 14 15 16 17 18 20 20 20 19
11 11 11 11 10 9 9 8 8 8 7 7 6 6 5 5 5 5 6 6 5 5 5 5 5 5 5 6 6 7 7 6 6 6 6 7 7 7 7 8 8 8 8 9 10 10 11 11 11 12 12 12 12 12 12 12 12 12 12 12 11 11 11 11 11 11 12 12 12 13 13 14 14 14 15 15 15 16 16 17 18 19 21 21 20
11 11 11 11 10 9 9 8 8 8 8 7 7 7 6 6 5 6 6 6 6 5 5 5 5 6 6 7 7 7 7 7 7 7 7 7 7 7 7 8 8 8 9 10 11 11 11 11 12 12 12 12 12 12 12 12 12 12 12 12 12 12 11 11 11 11 11 12 12 12 13 13 14 14 15 15 16 16 16 17 18 19 20 21 22
11 11 11 10 10 10 9 9 9 8 8 8 8 7 6 6 6 6 6 6 6 6 6 6 6 6 7 7 7 7 7 7 7 7 7 7 7 7 8 8 8 9 9 10 11 12 11 11 11 12 12 12 12 12 12 12 12 12 12 12 12 12 11 11 11 11 11 11 11 12 12 13 13 14 14 15 16 16 16 16 17 18 20 21 22
11 11 11 10 10 10 10 9 9 8 8 8 7 7 6 6 6 6 6 6 6 6 6 6 6 6 7 7 7 7 7 8 8 8 8 8 8 8 8 9 9 9 10 11 12 12 11 11 11 11 12 12 13 12 12 12 12 12 12 12 12 12 11 12 12 12 12 11 11 11 11 12 12 13 13 14 15 16 17 17 17 17 18 20 21
11 11 11 11 10 10 10 9 9 8 8 8 7 7 6 6 6 6 7 7 7 7 7 6 7 7 7 7 7 7 7 8 8 8 8 9 9 9 9 9 9 10 12 12 12 12 11 11 12 12 12 13 13 13 12 12 13 12 12 12 12 12 12 11 11 11 11 11 11 11 11 11 11 11 12 12 13 14 16 17 18 18 18 19 20
12 11 11 11 10 10 9 9 9 8 8 7 7 7 6 6 7 7 7 7 7 7 7 6 7 7 7 6 7 7 7 8 9 9 9 9 9 10 10 10 10 11 12 13 12 12 12 12 13 13 13 13 13 13 12 13 13 13 13 13 12 12 11 11 10 10 10 10 11 11 11 11 11 10 10 10 11 12 13 15 17 18 19 19 20
12 12 11 11 11 10 10 9 9 8 8 7 7 7 6 6 7 7 7 7 7 6 6 6 7 7 6 7 7 7 8 8 9 9 9 9 9 9 10 10 11 12 13 12 12 12 12 13 13 13 13 13 13 13 13 13 13 13 13 13 12 11 10 10 10 10 10 10 11 11 11 11 11 10 10 9 10 10 11 13 15 17 18 19 20
13 12 12 12 11 11 10 10 9 9 8 8 7 7 7 7 6 6 6 6 6 6 6 6 6 6 6 7 7 8 8 9 9 9 9 9 9 9 9 10 11 12 12 12 12 12 12 12 13 13 13 13 13 13 13 13 14 13 13 13 12 11 10 9 10 11 10 10 11 11 12 12 11 11 11 10 10 10 11 11 13 15 16 18 19
13 13 13 12 12 11 11 11 10 9 9 8 8 7 7 7 6 6 6 6 6 6 6 6 6 6 6 7 7 7 8 8 8 8 8 8 8 8 9 10 11 11 11 11 11 11 12 12 12 12 13 13 13 13 13 13 13 13 14 13 12 11 10 10 11 11 10 11 11 12 12 12 12 12 12 11 11 11 11 12 12 13 15 16 17
13 13 13 13 12 12 12 11 10 10 9 8 8 8 8 7 6 6 5 5 5 5 5 5 5 6 6 6 6 6 7 7 7 7 7 7 8 8 9 10 11 11 11 11 11 11 11 12 12 12 13 13 13 13 12 12 12 13 13 13 12 12 11 11 12 11 11 11 12 12 12 12 12 12 12 12 12 12 12 13 13 14 14 15 16
14 14 13 13 13 12 12 11 11 11 10 9 9 8 7 6 6 5 4 4 4 4 4 4 5 5 6 6 6 6 6 6 6 6 7 7 8 9 10 11 11 11 11 11 11 11 12 12 12 12 13 13 13 12 12 12 12 12 13 12 12 12 12 12 13 12 12 12 12 13 13 13 13 13 13 13 13 13 13 13 14 14 15 15 16
15 14 14 13 13 13 12 12 12 11 10 10 9 8 7 6 5 5 4 3 3 3 4 4 5 5 5 6 6 6 6 7 7 7 7 8 9 10 10 11 12 12 11 11 12 12 12 12 12 13 13 13 13 13 13 12 12 12 12 12 12 12 12 13 13 12 12 13 13 13 13 14 14 13 14 13 13 13 14 14 14 15 15 16 16
15 15 14 14 13 13 13 13 12 11 11 10 10 9 8 7 6 6 5 4 4 5 5 5 5 6 6 6 6 7 7 7 7 8 8 9 10 10 11 11 12 11 11 11 12 12 12 12 13 13 13 13 13 13 13 13 13 13 12 12 12 12 12 13 13 13 13 13 14 15 14 14 14 14 14 14 14 14 14 14 14 15 15 16 16
16 15 15 14 14 13 13 13 12 12 11 11 11 10 9 8 8 7 7 7 6 7 7 6 6 6 7 7 7 7 7 8 8 8 9 9 9 10 10 11 11 11 11 11 11 12 12 12 12 12 13 12 13 13 14 14 13 12 12 12 12 12 12 12 13 13 14 15 15 16 15 15 15 15 15 15 15 15 15 15 15 15 15 16 16
17 16 15 15 15 14 14 14 13 12 12 12 12 11 10 10 9 9 8 9 8 8 8 8 8 7 7 8 8 8 8 8 8 8 9 9 9 9 9 10 10 10 10 11 11 11 11 11 11 12 12 13 13 13 14 14 13 12 12 12 12 12 12 12 13 13 14 15 16 16 16 16 16 16 16 16 17 17 17 17 16 16 16 16 16
17 17 16 16 15 15 15 14 14 13 13 13 12 12 12 11 10 10 10 10 10 9 9 9 9 8 8 8 8 8 8 8 8 8 8 9 9 9 9 9 9 10 10 10 10 10 11 11 11 12 12 13 13 14 14 14 13 12 12 12 12 12 12 13 13 13 14 15 16 16 17 17 17 17 17 18 18 18 18 18 17 17 17 17 17
18 18 17 17 16 16 16 15 15 14 14 13 13 13 12 12 11 11 11 11 10 10 10 10 10 9 9 8 8 8 8 8 8 8 8 9 9 9 9 9 9 9 10 10 10 10 10 11 11 12 12 12 13 13 14 14 13 13 13 13 13 13 13 14 14 14 14 15 16 17 17 18 18 18 19 19 19 19 19 19 19 19 19 18 18
19 18 18 18 17 17 17 17 16 15 15 14 14 14 13 13 12 12 12 12 11 11 11 11 11 10 9 9 9 9 8 8 8 9 9 9 9 9 9 10 10 10 10 10 10 10 10 11 11 12 12 12 13 13 14 14 14 14 14 14 14 14 15 15 15 15 15 16 16 17 18 18 19 20 20 20 20 20 20 20 20 20 20 20 20
Wind_Direction
123 124 124 126 130 131 128 125 123 124 124 123 124 123 120 117 119 121 121 121 120 120 121 122 123 123 123 123 122 120 117 114 112 111 111 108 105 102 99 95 90 84 80 77 74 71 70 69 70 70 68 66 63 59 58 56 55 55 59 68 74 75 71 68 66 63 61 57 55 55 60 63 65 69 71 73 78 83 88 95 101 109 118 122 124
124 126 125 127 130 131 128 125 124 124 123 123 124 123 121 119 121 123 123 122 121 121 121 121 122 123 123 122 121 119 116 114 112 110 108 106 104 102 98 93 89 84 81 77 74 70 69 70 71 69 65 63 61 59 58 57 55 55 58 66 72 74 70 69 67 65 62 57 55 55 59 60 63 68 69 72 77 81 85 91 98 108 119 123 126
126 125 125 128 130 130 128 126 125 124 123 123 123 122 122 121 122 123 124 123 122 122 121 121 122 122 123 122 121 119 117 114 112 110 108 106 105 101 96 91 88 85 81 76 72 70 70 70 68 65 61 59 58 57 58 57 55 55 57 61 67 72 70 71 70 67 64 58 56 56 58 59 62 68 68 71 77 81 84 90 98 108 118 123 126
126 126 126 128 130 130 129 128 125 124 123 124 124 123 122 122 123 125 125 123 122 122 122 121 122 122 122 121 121 119 117 115 113 111 109 107 104 100 96 91 89 84 80 75 71 69 70 68 65 61 57 55 54 55 56 55 55 54 54 56 60 68 69 69 70 68 66 61 58 57 59 60 62 66 69 71 76 80 84 90 98 108 116 121 125
126 127 127 128 129 130 130 129 126 124 124 125 126 125 124 123 125 126 126 125 124 123 122 121 122 123 122 121 121 120 118 116 114 112 110 108 105 101 97 94 89 84 79 74 70 68 68 64 60 56 52 50 52 53 53 54 54 54 53 52 53 60 65 64 69 71 69 64 60 59 60 61 62 66 70 72 76 80 84 91 99 108 115 119 123
126 128 128 128 127 128 128 128 126 125 125 126 127 126 125 125 126 128 128 127 125 124 123 122 122 122 122 122 121 120 120 118 116 114 113 110 106 101 98 94 89 84 78 73 68 64 61 58 54 49 45 45 47 49 50 51 51 51 51 50 48 50 57 59 70 79 74 68 62 60 60 61 63 67 72 74 77 81 87 95 101 109 114 119 123
127 128 127 127 126 127 126 125 125 124 126 127 128 127 126 127 128 129 129 128 126 126 125 123 122 122 122 122 122 121 121 120 117 116 114 110 105 100 96 92 86 80 75 70 63 57 53 50 46 41 38 37 39 42 44 47 45 44 45 46 46 45 48 50 58 81 81 73 66 60 60 62 64 68 75 78 79 84 91 99 105 111 115 120 124
128 128 125 125 125 126 124 123 124 123 126 127 128 128 127 127 128 129 129 129 127 127 126 124 123 122 122 122 123 123 123 121 118 116 113 109 103 99 93 87 79 72 67 62 56 50 44 41 38 33 30 28 30 33 35 39 39 37 38 41 43 41 38 37 40 70 84 79 73 63 61 64 66 70 76 83 85 88 94 102 108 113 118 122 126
128 127 125 124 125 126 123 123 123 124 125 126 127 127 128 128 128 128 129 128 128 127 126 126 126 125 124 125 126 126 126 123 121 118 113 108 102 97 90 80 71 65 58 52 46 40 34 31 27 24 21 20 21 23 25 27 30 30 31 35 36 33 29 30 39 68 88 88 83 67 64 67 69 71 76 86 91 92 97 104 109 113 118 124 128
129 127 125 124 125 126 123 122 123 125 126 126 127 127 128 128 128 128 128 129 129 130 129 129 129 128 128 129 129 128 127 125 123 118 113 107 102 95 86 76 66 60 51 41 33 27 22 17 14 12 9 11 16 17 17 16 18 21 23 26 27 26 26 30 43 67 89 95 95 75 71 72 72 73 78 88 94 97 101 107 113 114 118 124 128
129 127 126 125 125 125 124 123 123 125 126 126 127 127 127 127 128 129 129 130 131 133 133 132 132 131 131 131 129 128 126 124 121 117 113 107 101 92 83 74 66 54 41 30 21 15 9 4 0 358 356 360 6 8 8 8 7 8 10 12 16 22 27 33 41 55 76 100 112 96 82 78 77 75 80 89 94 101 107 113 118 119 121 124 129
130 129 128 127 126 126 126 124 124 125 126 126 127 128 128 128 129 130 131 132 133 134 134 133 132 132 130 128 128 127 125 123 121 117 112 105 96 87 79 69 57 41 28 16 9 4 358 355 352 348 345 347 352 356 358 0 359 353 351 355 3 12 24 33 36 39 48 109 133 129 110 88 82 79 83 91 94 103 113 120 124 125 126 128 131
132 131 130 129 127 127 127 126 126 126 126 126 127 129 130 130 130 131 131 132 132 132 131 130 130 128 126 125 126 126 125 124 121 116 108 99 90 81 70 53 37 23 12 4 359 353 350 349 348 343 339 339 340 342 345 350 349 341 341 345 349 357 8 16 20 23 18 99 172 157 152 118 92 82 89 97 98 106 117 126 129 130 131 133 136
133 132 131 130 129 130 129 127 127 127 128 127 128 130 131 131 130 130 129 129 129 128 128 127 127 125 125 125 124 125 124 123 118 111 102 93 85 72 53 32 18 7 358 354 351 347 346 345 344 342 339 335 330 331 333 337 336 334 339 338 333 336 344 348 357 7 10 22 194 189 186 184 140 100 101 109 108 112 122 132 136 136 137 139 141
135 133 133 132 131 132 131 130 130 129 130 130 129 130 131 130 129 128 127 128 128 128 128 127 127 126 126 125 123 124 123 122 115 105 96 89 80 62 39 19 8 359 352 348 345 344 343 341 340 339 337 333 328 325 326 328 327 328 332 332 325 321 327 330 333 340 353 350 218 221 222 224 217 196 146 134 128 124 129 140 144 144 144 145 147
137 136 135 134 134 133 132 132 132 132 132 131 130 130 129 129 129 128 128 129 129 130 130 128 128 127 126 126 125 125 125 122 115 103 92 88 76 54 29 9 1 355 349 344 342 342 340 338 335 332 331 330 327 324 323 324 324 326 329 332 331 321 318 317 314 312 314 304 256 237 236 233 225 218 198 174 159 148 142 147 151 153 152 151 154
141 140 138 136 136 135 134 134 134 134 134 132 130 129 128 129 129 130 130 130 130 131 132 131 129 127 126 125 127 127 128 126 117 103 92 83 61 34 11 1 1 357 351 346 341 340 338 336 332 326 324 323 324 324 321 321 324 327 330 330 328 318 311 308 301 295 296 294 279 249 236 231 227 224 213 198 186 175 164 158 158 161 161 159 160
144 143 141 138 138 137 136 136 136 135 133 132 131 130 129 130 131 132 133 132 132 133 134 133 130 126 125 125 124 125 129 131 123 107 93 74 45 26 6 7 9 2 356 349 343 340 339 336 332 327 323 320 320 318 320 329 331 326 325 324 320 313 306 302 293 287 286 285 285 268 241 233 231 227 220 210 200 193 185 175 169 168 169 168 167
148 146 144 142 142 141 139 137 136 133 131 131 131 132 132 133 134 134 135 135 134 134 134 133 131 126 125 126 122 121 126 131 129 118 96 50 26 20 6 7 5 0 357 352 348 346 345 341 338 333 327 325 321 316 325 343 343 330 323 320 316 313 306 299 290 284 281 277 280 279 257 241 237 232 225 217 209 202 198 191 183 179 177 176 174
151 150 147 147 146 144 142 138 136 133 132 132 133 134 135 136 136 135 135 135 134 133 133 132 130 126 125 125 120 118 119 122 125 123 72 5 356 352 341 342 347 349 351 350 349 347 347 345 343 340 335 331 326 324 332 347 348 338 333 327 319 313 305 296 290 284 280 277 276 277 267 248 241 238 229 222 216 210 207 203 196 191 187 184 182
154 152 149 149 148 147 144 141 139 138 137 136 135 135 137 138 136 135 135 134 134 132 132 131 129 125 123 124 122 117 111 107 96 73 335 330 331 333 327 328 335 340 343 345 345 343 343 342 340 341 339 337 334 333 338 343 341 335 334 331 324 314 304 296 292 288 285 282 276 273 267 254 244 239 232 225 221 217 215 211 206 202 197 193 191
155 154 152 151 150 149 147 144 143 143 142 140 139 137 138 139 137 137 136 136 136 136 135 132 131 127 125 125 123 116 102 94 30 347 321 319 321 328 329 328 333 336 339 341 344 345 344 342 340 341 343 344 343 341 340 339 336 330 326 324 320 312 304 299 295 292 290 285 279 274 267 258 248 242 235 228 225 223 221 218 213 210 206 202 200
157 157 155 155 153 152 150 149 148 147 146 144 143 140 140 140 139 141 143 143 141 142 142 137 136 133 131 128 122 115 99 49 337 338 329 325 326 332 335 334 335 338 339 340 344 347 348 346 344 343 344 345 345 342 338 336 333 328 324 320 316 309 303 301 297 294 292 287 281 275 269 261 252 246 239 232 228 226 224 222 219 216 214 211 208
161 161 159 158 158 157 156 155 153 152 149 148 148 145 143 142 142 146 149 149 147 148 149 147 144 142 141 138 127 124 314 322 329 331 333 333 330 331 333 334 336 338 339 339 340 343 345 345 343 341 338 339 340 339 337 334 330 327 323 320 316 310 303 297 296 294 291 287 282 276 273 266 256 250 244 237 232 229 226 224 222 220 219 217 215
165 164 164 164 163 162 162 160 159 157 155 154 154 152 149 146 146 150 153 156 157 157 159 158 158 163 168 186 221 267 294 318 326 325 332 336 332 330 331 332 334 337 339 339 339 339 340 339 340 339 336 335 335 335 334 333 330 326 322 319 314 308 303 296 293 291 288 286 282 277 274 271 263 256 249 242 237 233 229 226 224 223 222 221 220
166 167 167 167 166 165 165 164 163 162 162 161 161 161 160 157 155 157 161 165 169 168 171 174 177 192 207 225 252 281 302 318 323 324 331 337 340 336 334 335 335 337 339 340 340 339 338 336 335 335 335 334 332 331 331 330 327 324 321 317 313 307 303 299 295 291 287 284 282 278 274 272 268 262 256 248 242 239 235 231 226 225 226 225 223
167 169 169 168 168 168 168 168 167 166 165 165 165 167 169 171 173 174 178 181 183 184 188 192 196 210 225 241 259 281 301 316 318 323 329 338 344 341 337 336 335 336 338 340 339 339 337 334 331 330 331 331 331 331 330 328 325 322 319 316 313 309 304 300 296 292 288 284 282 279 274 271 270 268 261 253 247 243 241 237 231 227 228 228 227
168 170 170 169 170 170 171 171 171 171 169 168 168 170 174 180 185 190 193 194 198 204 209 209 210 219 233 247 261 277 294 316 321 323 325 332 339 339 338 337 337 337 338 339 338 337 336 333 330 328 328 328 329 329 327 326 323 320 316 313 310 308 305 301 297 294 291 286 282 278 275 272 272 271 264 257 251 244 242 242 237 232 230 230 229
171 172 172 171 171 171 172 175 177 177 177 176 176 176 181 188 195 201 204 204 210 217 221 221 224 229 238 247 259 272 285 310 320 317 319 326 328 330 334 337 338 339 338 337 336 337 336 334 332 329 328 327 326 325 324 322 321 319 315 311 309 307 304 301 297 295 293 289 284 279 276 273 272 273 268 260 253 244 241 241 240 236 234 233 231
174 174 173 173 175 174 177 181 182 183 184 187 189 190 194 200 205 211 211 214 219 223 223 226 231 234 243 251 255 263 277 297 306 303 309 318 319 323 329 332 334 336 336 335 336 338 337 335 334 332 330 328 325 324 323 322 321 320 317 313 310 309 306 303 299 296 293 290 285 280 276 274 273 273 270 263 255 247 243 240 239 238 236 235 234
176 176 177 178 180 182 185 188 188 189 190 196 202 204 208 212 215 216 216 220 224 224 226 230 235 241 249 253 256 261 271 282 288 292 300 310 314 319 322 325 328 329 331 333 336 338 337 336 335 334 332 329 326 324 324 323 322 321 317 314 311 310 308 305 302 298 295 291 286 282 277 275 273 272 270 265 258 252 248 243 240 239 238 236 235
179 180 182 183 185 188 191 192 194 197 200 206 212 214 218 222 225 223 222 226 225 225 228 232 240 247 251 254 260 264 268 274 279 283 290 302 309 314 316 319 323 324 326 329 333 335 336 336 334 333 332 330 329 328 327 327 327 325 322 319 314 312 310 307 303 300 297 294 289 285 280 277 273 271 268 266 261 255 252 247 242 241 240 238 237
184 185 188 189 190 194 195 197 199 204 209 213 218 221 224 229 232 229 229 229 227 227 231 237 242 247 253 259 265 267 270 272 275 279 284 294 302 307 311 315 319 320 322 326 330 332 333 333 333 333 332 333 333 333 334 335 335 335 333 329 324 318 314 310 306 302 299 296 293 288 285 281 276 272 268 265 261 257 254 250 245 242 241 241 241
188 189 191 194 197 199 201 204 205 209 214 216 220 224 227 232 232 230 232 232 230 231 238 243 245 251 260 265 268 269 271 272 275 279 282 290 297 303 309 313 315 316 319 323 326 328 329 330 331 332 332 334 336 336 338 338 338 338 337 334 330 325 320 317 313 308 303 299 296 291 288 286 282 277 271 265 262 259 257 254 249 245 242 242 243
194 193 195 198 201 204 206 209 210 213 217 218 221 224 228 231 231 232 233 234 234 237 244 250 254 261 266 267 268 270 271 274 276 279 282 288 295 302 308 311 311 312 317 321 323 324 325 327 328 330 331 332 333 334 335 336 336 337 337 335 332 329 326 324 321 317 312 307 302 297 293 290 287 282 275 269 263 259 259 257 253 249 246 245 245
198 198 200 202 204 207 208 211 214 216 217 220 223 226 230 232 233 235 236 237 239 242 249 255 261 267 270 267 267 269 270 273 275 277 281 284 290 298 303 306 306 307 313 317 320 321 322 324 326 328 328 329 330 329 330 331 332 335 336 335 332 330 329 327 326 324 321 317 312 308 302 295 291 286 280 273 266 260 258 257 256 253 251 249 247
202 203 204 205 207 208 210 213 216 218 219 221 226 230 231 232 233 234 236 240 243 248 255 260 264 269 272 270 268 269 268 270 272 274 278 280 284 291 296 300 301 303 310 314 317 317 318 320 323 325 324 325 327 326 326 326 328 330 331 332 331 330 329 328 328 327 326 325 322 319 314 306 298 290 284 278 271 263 259 257 256 255 253 251 249
204 207 208 208 210 211 212 214 217 220 222 225 229 231 231 232 232 233 239 245 249 252 257 263 266 270 273 272 270 270 271 272 273 275 277 279 283 289 294 297 298 302 308 312 314 314 314 316 319 322 323 323 323 324 323 322 323 325 326 327 328 328 329 328 328 328 327 328 327 326 325 320 311 300 291 284 277 270 264 260 258 257 255 253 251
207 209 211 212 213 213 213 215 218 221 223 226 228 230 233 234 233 236 242 248 251 253 256 262 266 270 274 273 272 273 275 277 275 275 278 281 283 288 292 296 298 303 308 311 312 312 311 313 315 319 321 320 320 322 322 320 320 322 323 324 324 325 326 327 328 328 327 327 328 327 328 328 324 315 304 293 287 280 272 266 262 260 258 257 255
210 211 212 212 213 213 215 217 220 221 222 224 225 227 230 233 235 238 242 246 251 256 259 262 264 269 272 272 272 275 277 276 275 276 279 284 286 287 292 296 300 303 306 309 310 310 309 311 313 316 318 318 318 320 321 320 320 320 322 323 323 322 322 325 328 328 328 327 327 328 328 329 328 325 318 309 300 293 285 276 269 264 262 260 259
213 213 211 210 211 214 217 219 220 220 221 222 221 222 224 229 234 237 243 248 253 258 263 265 267 268 270 272 274 277 277 277 278 279 282 285 286 289 295 299 301 303 305 307 307 307 308 310 312 314 316 317 318 320 321 320 320 320 322 323 323 322 319 322 326 326 326 326 326 327 327 327 327 325 322 317 311 304 297 288 279 272 267 264 262
214 213 213 212 213 216 218 220 221 219 220 220 219 221 224 228 232 238 248 256 260 263 267 271 272 272 273 275 278 279 280 280 282 282 283 284 287 292 298 302 304 307 308 307 306 306 307 309 312 314 316 317 317 318 319 319 319 321 322 323 323 322 318 319 323 322 321 322 323 325 324 323 323 322 320 317 314 310 304 297 289 281 274 269 266
213 214 215 216 216 218 219 221 221 219 218 217 217 221 225 228 234 243 251 259 264 267 271 272 272 277 280 279 279 280 281 282 283 284 285 285 289 296 301 306 309 312 312 309 308 307 308 310 312 314 316 317 317 318 318 317 317 319 320 320 320 319 315 315 319 319 317 318 319 321 322 321 319 319 318 315 313 310 307 303 295 288 281 275 270
213 215 216 216 217 218 220 220 220 220 218 215 216 219 222 227 233 238 243 251 260 264 268 270 272 280 284 284 284 285 286 285 285 286 287 289 294 300 305 309 311 312 312 311 310 309 310 311 312 313 315 317 318 319 318 316 315 316 318 318 318 316 313 313 315 315 315 316 317 318 318 318 316 315 314 313 311 310 307 305 300 294 287 281 275
215 216 216 216 217 219 220 220 220 220 218 215 215 216 217 221 225 227 231 240 250 256 261 267 273 280 286 289 290 289 289 289 288 289 291 293 296 300 304 307 309 309 310 310 309 309 310 310 312 314 315 317 318 318 318 317 315 314 314 314 314 313 311 311 311 311 312 313 314 316 315 315 314 312 312 311 310 309 308 305 302 298 293 287 280
216 216 217 217 218 219 219 219 220 219 218 217 217 218 220 223 225 226 231 240 249 256 262 268 273 280 289 293 292 290 289 289 290 291 293 295 297 298 301 304 306 306 306 308 308 308 308 310 312 314 316 317 317 318 318 317 317 314 312 311 310 309 308 309 308 308 309 309 310 312 312 312 311 310 310 310 309 308 308 307 303 300 296 291 286
218 217 217 218 218 219 219 219 220 220 221 221 222 225 228 230 233 237 242 248 254 259 266 273 276 281 288 291 292 291 289 289 292 292 294 296 296 296 299 303 305 305 306 307 307 307 308 310 311 313 315 316 316 317 318 318 318 316 314 311 309 308 308 308 307 307 307 307 308 310 310 310 309 308 308 308 307 306 305 305 303 301 298 294 290
219 218 218 218 218 219 219 220 221 224 225 227 229 231 234 237 239 244 250 254 259 263 267 272 277 282 285 288 291 292 289 289 292 294 295 296 297 297 300 305 307 307 308 308 308 308 310 311 312 313 315 315 315 317 318 319 319 317 315 314 312 310 309 308 308 308 307 307 308 308 308 308 306 306 307 307 306 305 303 302 301 301 299 296 293
221 220 220 220 219 219 220 222 224 227 229 230 232 235 238 241 243 246 251 256 261 264 267 269 274 280 282 285 289 291 290 290 292 295 298 298 298 300 303 307 309 309 310 310 309 309 310 311 312 314 315 315 315 317 318 319 318 316 316 316 315 312 309 308 308 308 307 308 308 307 307 307 306 306 306 306 305 303 302 301 300 300 299 296 294
224 222 223 223 221 221 222 224 227 229 231 233 235 238 240 243 245 247 251 256 260 264 267 267 270 275 277 280 286 290 291 293 294 298 302 303 301 301 304 308 310 310 311 311 311 309 309 311 312 313 315 316 317 317 318 317 316 315 315 315 314 312 309 307 307 307 307 307 307 307 305 304 304 305 306 305 304 301 299 298 298 298 297 296 294
226 225 225 224 223 223 224 226 229 231 233 235 236 239 241 244 247 249 253 257 260 264 265 265 267 269 270 274 281 287 291 294 297 300 304 305 303 302 305 308 309 310 312 312 312 311 311 311 312 313 315 317 318 318 317 316 314 313 313 313 314 313 310 308 306 305 306 306 306 306 305 302 301 301 303 304 302 299 297 295 296 296 296 295 293